Location: Peebles
(55.6412°N, 3.1714°W)
Time: 17:25:40
(UTC+01:00)

Cosmos 1934 Rocket - Pass Details

Date: 27 January 2022
Orbit: 938 x 999 km, 83.0° (Epoch: 25 May)

Event Time Altitude Azimuth Distance (km) Brightness Sun altitude
Rises 07:03:35 0° 173° (S) 3,695 7.4 -9.9°
Reaches altitude 10° 07:06:09 10° 169° (S) 2,744 6.8 -9.6°
Maximum altitude 07:12:16 57° 93° (E) 1,150 4.8 -8.8°
Drops below altitude 10° 07:18:21 10° 17° (NNE) 2,723 6.3 -8.0°
Sets 07:20:53 0° 14° (NNE) 3,665 6.9 -7.6°
